Timeline UpdatesTrip UpdatesNews PostsPvt PostsTravel TipsAdmin PostsConv PostsFollowed PostsChat RequestsBlog PostsPNR Posts

Disclaimer
Search
 
 
Wed Sep 3, 2014 02:52:35 ISTHomeTrainsΣChainsAtlasPNRForumGalleryNewsFAQTripsMembersLoginFeedback
No Recent News for this Train
Other Trains in the News **new
Latest...
Mangalore Central departure at 5AM- speede dup by 10 mins
Sat Aug 30, 2014 (09:06PM)
⇐ Return Journey: Train# 16650

16649/Parashuram Express

Time-Table HAS CHANGED.
Yesterday (12:30AM)
Change Departure Station:
Change Arrival Station:
Post a Train Travel TipPost a Train Travel Tip **new
Post a Comment/Question/Picture/VideoPost a Comment/Question/Picture/Video
Pantry/Catering
✓ Pantry Car Avbl
✓ Catering Avbl
RSA - Rake Sharing
Rake/Coach Composition
Loco SLR GS GS GS GS GS GS GS GS GS PC D1 C1 C2 F1 GS GS GS GS SLR
Loco
MAQ-SRR :ERS WDM 3A/ED WDM 3A/D SRR-NCJ: ED/RPM WAP 4
News    PNR    Forum    Time-Table    Availability    Fare Chart    Map    Arr/Dep History    Trips    Gallery    ΣChains    X/O    Timeline    
Travel Time: 11h 49m    40 halts    Distance: 522 km    Avg Speed: 44 km/hr
Type: Mail/Express
Zone: SR/Southern
Departs @ 06:46
Platform# 2
SMTWTFS
Payangadi/PAZ 
Arrives @ 18:35
Platform# 5
SMTWTFS
Trivandrum Central/TVC 

40 halts. 102 intermediate Stations between Payangadi and Trivandrum Central

Show ALL intermediate Stations  Show Old Time-Table

#CodeStation NameX/OArrivesAvgDepartsAvgHaltPFDay#KmSpeedElevZoneAddress
1MAQMangalore Central (4)  -04:50 05:00-11-109.86914mSRMangalore 575001, Karnataka
2KGQKasaragod (3)X  05:35 05:40-05:36 05:41-1m--1-64.16918mSRTel: 04994 220800, Kerala
3KZEKanhangad (3)X  05:56 06:01-05:57 06:02-1m--1-41.05615mSRKanhangad, Kerala
4NLENileshwar (2)X  06:07 06:12-06:08 06:13-1m--1-31.76012mSRNileswaram, Kerala
5PAYPayyanur (3)  06:28 06:33-06:29 06:34-1m--1-11.7640mSRKannur District, Kerala
6PAZ»Payangadi (2)»  06:40 06:45-06:41 06:46-1m210.06412mSRKannur District, Kerala
7KPQKannapuram (2)X  06:48 06:53-06:49 06:54-1m217.5339mSRKannur District, Kerala
8CANKannur Main (4)  07:15 07:20-07:20 07:25-5m3122.06514mSRKannur Tel: 0497 2705555, Kerala
9TLYThalassery (2)  07:39 07:44-07:40 07:45-1m--142.7629mSRKannur, Kerala
10MAHEMahe (2)  07:49 07:54-07:50 07:55-1m--151.95916mSRMahe, Puducherry
11BDJVadakara (2)X  08:02 08:08-08:03 08:09-1m1164.87711mSRCalicut / Station Ph No : 0496-2524254, Kerala
12QLDKoyilandy (3)  08:19 08:26-08:20 08:27-1m--186.74411mSRQuilandi, Kerala
13CLTKozhikode Main (4)X  09:00-09:05-5m31111.04311mSRCalicut Tel: 0495 2701234, Kerala
14FKFerok (2)  09:19-09:20-1m--1121.05119mSRFeroke, Kerala
15VLIVallikunnu (2)X  09:32-09:33-1m--1131.24313mSRVallikkunnu, Kerala
16PGIParappangadi (2)  09:40-09:41-1m--1136.26119mSRParappanangadi, Kerala
17TATanur (3)X  09:49-09:50-1m--1144.35311mSRMalappuram, Kerala
18TIRTirur (3)  09:59-10:00-1m21152.3489mSRTel: 0494 2422240, Kerala
19KTUKuttippuram (2)  10:19-10:20-1m21167.36517mSRKuttippuram, Kerala
20PTBPattambi (2)X  10:34 10:37-10:35 10:38-1m21185.82221mSRPattambi, Kerala
21SRRShoranur Junction (7)X11:10-11:15 11:20-5 10m61197.45226mSRShoranur ph.no 0466-2222913, Kerala
22WKIWadakkanchery (2)X  11:34 11:39-11:35 11:40-1m11213.95840mSRWadackanchery, Kerala
23TCRThrissur (4)X  11:52 11:57-11:54 12:00-2 3m11230.3626mSRThrissur Tel: 0487 2423150, Kerala
24PUKPudukkad (2)  12:08 12:13-12:09 12:14-1m--1243.86811mSRPudukad, Kerala
25IJKIrinjalakkuda (2)  12:19 12:23-12:20 12:24-1m21254.05518mSRKalletumkara, Kerala
26CKIChalakkudy (3)X  12:28 12:31-12:29 12:32-1m11260.5659mSRPh: 0480- 2701368, Kerala
27DINRDivine Nagar (2)  12:33 12:34-12:34 12:35-1m11262.78716mSRThrissur, Kerala
28AFKAngamaly for Kalady (3)  12:44-12:45-1m21275.72816mSRPhone: 0484-2452340, Kerala
29AWYAluva (3)X  13:00 13:05-13:02 13:07-2m11284.93112mSRPh: 0484-2624141, Kerala
30ERNErnakulam Town (North) (2)  13:35 13:40-13:40 13:45-5m21301.7349mSRTel: 0484 2395198, Kerala
31TRTRThrippunithura (2)13:55 14:02-13:56 14:03-1m--1311.4725mSRErnakulam, Kerala
32PVRDPiravom Road  14:14 14:19-14:15 14:20-1m11330.55912mSRKottayam, Kerala
33ETMEttumanur (1)X  14:34 14:41-14:35 14:42-1m11351.13528mSRKottayam, Kerala
34KTYMKottayam (3)  14:50 15:00-14:53 15:03-3m11361.75915mSRTel: 0481 2563535, Kerala
35CGYChanganassery (3)X  15:09 15:21-15:10 15:22-1m21379.55911mSRPh: 0481- 2420108, Kerala
36TRVLTiruvalla (2)  15:19 15:30-15:20 15:31-1m11387.46827mSRPh: 0469-2601314, Kerala
37CNGRChengannur (3)  15:34 15:39-15:35 15:40-1m11396.5686mSRPh: 0479-2452340, Kerala
38MVLKMavelikara (3)X  15:49 15:51-15:50 15:52-1m31409.02913mSRMavelikkara Ph: 0479-2302249, Kerala
39KYJKayamkulam Junction (5)  16:00 16:08-16:02 16:10-2m41416.75511mSRAlappuzha Ph;0479-2442042, Kerala
40KPYKarunagappalli (2)  16:15 16:25-16:16 16:26-1m21430.45112mSRKollam Dist, Kerala
41STKTSasthamkotta (2)  16:24 16:35-16:25 16:36-1m11438.0340mSRKollam Dist, Kerala
42QLNKollam Junction (6)X  17:05 17:10-17:10 17:15-5m11457.56216mSRKollam 0474-2746194, Kerala
43PVUParavur (3)17:20 17:27-17:21 17:28-1m--1469.97518mSRParavoor, Kerala
44VAKVarkala Sivagiri (3)O  17:29 17:37-17:30 17:38-1m21481.16652mSREdava Kappil Road, Kerala
45KZKKazhakkuttam (3)17:53 18:03-17:54 18:04-1m--1508.86620mSRKulathoor ► Kazhakootam Road Kazhakootam PO Thiruvananthapuram, Kerala
46TVPThiruvananthapuram Pettah (2)O  18:04 18:14-18:05 18:15-1m11519.7718mSRTrivandrum Ph: 04712470181, Kerala
47TVC•Trivandrum Central (5)•X  18:25 18:35-18:35 18:40-10 5m51522.15412mSRThiruvananthapuram 695001, Kerala
48NYYNeyyattinkara  18:54 18:59-18:55 19:00-1m--1539.37311mSRThiruvananthapuram, Kerala
49PASAParassalaX  19:04 19:09-19:05 19:10-1m--1550.24245mSRParassala, Kerala
50KZTKulitturai  19:24-19:25-1m--1560.14729mSRMarthandam, Tamil Nadu
51ERLEraniel (2)  19:44-19:45-1m--1574.92219mSRKanyakumari, Tamil Nadu
52NCJNagercoil Junction (4)  20:35----1593.2-22mSRNagercoil-629002, Tamil Nadu
Scroll to Top
Scroll to Bottom